KB2AHZ Weather Reports


Display with metric or nautical units.
time (UTC)temp
F
wind
direction
speed
MPH
gust
MPH
rain 1hr
in
rain 24hr
in
rain mn
in
humidity
%
barometer
mb
20260506211246 73 227 2.0 11.0 0.00 0.06 0.06 79 1011.4
20260506210743 73 263 3.0 5.0 0.00 0.06 0.06 80 1011.5
20260506210240 73 237 6.0 10.0 0.00 0.06 0.06 80 1011.4
20260506205737 72 259 1.0 4.0 0.00 0.06 0.06 81 1011.4
20260506205232 71 167 5.0 6.0 0.00 0.06 0.06 83 1011.3
20260506204729 71 216 5.0 10.0 0.00 0.06 0.06 82 1011.3
20260506204227 71 270 3.0 7.0 0.00 0.06 0.06 83 1011.2
20260506203725 71 243 7.0 9.0 0.00 0.06 0.06 83 1011.0
20260506203221 71 226 2.0 5.0 0.00 0.06 0.06 85 1011.1
20260506202719 71 45 3.0 6.0 0.00 0.06 0.06 85 1011.2
20260506202215 71 283 3.0 8.0 0.00 0.06 0.06 84 1011.1
20260506201712 70 275 3.0 8.0 0.00 0.06 0.06 83 1010.9
20260506201208 70 242 3.0 14.0 0.00 0.06 0.06 84 1011.1
20260506200700 70 229 3.0 8.0 0.00 0.06 0.06 86 1010.8
20260506200157 69 60 3.0 3.0 0.00 0.06 0.06 87 1011.1
20260506195653 69 306 2.0 8.0 0.00 0.06 0.06 85 1010.8
20260506195150 69 166 3.0 6.0 0.00 0.06 0.06 86 1011.0
20260506194647 69 236 2.0 7.0 0.00 0.06 0.06 86 1010.5
20260506194143 69 265 3.0 7.0 0.00 0.06 0.06 87 1010.5
20260506193641 69 210 3.0 9.0 0.00 0.06 0.06 86 1010.9
20260506193138 69 231 5.0 12.0 0.00 0.06 0.06 85 1011.2
20260506192635 69 233 3.0 11.0 0.00 0.06 0.06 85 1011.5
20260506192131 69 285 13.0 13.0 0.00 0.06 0.06 85 1011.6
20260506191628 69 297 0.0 4.0 0.00 0.06 0.06 87 1011.8
20260506191124 69 235 7.0 11.0 0.00 0.06 0.06 84 1012.2
20260506190621 69 261 2.0 11.0 0.00 0.06 0.06 84 1012.3
20260506190118 69 261 4.0 6.0 0.00 0.06 0.06 84 1012.5
20260506185615 69 218 4.0 13.0 0.00 0.06 0.06 85 1012.6
20260506185111 69 230 3.0 6.0 0.00 0.06 0.06 85 1013.1
20260506184609 69 250 4.0 7.0 0.00 0.06 0.06 85 1012.9
20260506184106 69 286 5.0 10.0 0.00 0.06 0.06 86 1013.0
20260506183603 69 279 1.0 6.0 0.00 0.06 0.06 87 1013.2
20260506183058 68 253 2.0 10.0 0.00 0.06 0.06 87 1013.1
20260506182556 69 278 3.0 7.0 0.00 0.06 0.06 87 1013.2
20260506182053 69 214 3.0 4.0 0.00 0.06 0.06 86 1013.7
20260506181551 68 278 4.0 5.0 0.00 0.06 0.06 88 1013.5
20260506181047 68 262 4.0 10.0 0.00 0.06 0.06 87 1013.7
20260506180544 68 257 2.0 6.0 0.00 0.06 0.06 89 1013.7
20260506180041 68 220 0.0 5.0 0.00 0.06 0.06 89 1013.8
20260506175537 68 280 7.0 9.0 0.00 0.06 0.06 87 1014.0
20260506175033 69 260 3.0 12.0 0.00 0.06 0.06 87 1014.0
20260506174533 68 282 3.0 11.0 0.00 0.06 0.06 87 1013.8
20260506174028 69 296 4.0 5.0 0.00 0.06 0.06 88 1014.1
20260506173526 68 306 2.0 10.0 0.00 0.06 0.06 87 1013.7
20260506173023 68 2 2.0 7.0 0.00 0.06 0.06 88 1013.6
20260506172520 67 271 4.0 7.0 0.00 0.06 0.06 89 1013.6
20260506172016 67 277 3.0 13.0 0.00 0.06 0.06 88 1013.8
20260506171514 67 267 4.0 10.0 0.00 0.06 0.06 87 1013.7
20260506171010 66 309 3.0 8.0 0.00 0.06 0.06 88 1013.5
20260506170508 67 246 3.0 8.0 0.00 0.06 0.06 89 1013.6
20260506170000 67 296 2.0 5.0 0.00 0.06 0.06 92 1013.7
20260506165459 67 235 0.0 4.0 0.00 0.06 0.06 93 1013.6
20260506164954 66 281 0.0 5.0 0.00 0.06 0.06 95 1013.7
20260506164451 65 179 2.0 7.0 0.00 0.06 0.06 94 1013.8
20260506163949 65 216 3.0 8.0 0.00 0.06 0.06 95 1013.9
20260506163444 64 210 4.0 8.0 0.00 0.06 0.06 95 1013.8
20260506162938 64 184 0.0 8.0 0.00 0.06 0.06 97 1013.8
20260506162436 64 246 2.0 7.0 0.00 0.06 0.06 97 1013.8
20260506161934 64 228 3.0 3.0 0.07 0.06 0.06 97 1013.9
20260506161431 63 274 1.0 4.0 0.09 0.06 0.06 96 1014.0
20260506160923 63 176 2.0 3.0 0.07 0.05 0.05 96 1014.3
20260506160420 63 212 1.0 5.0 0.12 0.05 0.05 96 1014.5
20260506155918 64 293 2.0 3.0 0.09 0.04 0.04 94 1014.3
20260506155415 64 256 0.0 3.0 0.05 0.03 0.03 93 1014.1
20260506153537 65 263 2.0 5.0 0.05 0.01 0.01 89 1014.7
20260506153034 65 235 0.0 5.0 0.02 0.00 0.00 87 1014.9
20260506152531 65 267 3.0 4.0 0.00 0.00 0.00 84 1014.7
20260506152029 66 235 3.0 6.0 0.00 0.00 0.00 82 1014.5
20260506151527 66 221 4.0 4.0 0.00 0.00 0.00 81 1014.3
20260506151024 66 218 2.0 5.0 0.00 0.00 0.00 80 1014.6
20260506150520 66 234 0.0 4.0 0.00 0.00 0.00 80 1014.6
20260506150017 66 207 2.0 4.0 0.00 0.00 0.00 79 1014.6
20260506145514 66 307 4.0 11.0 0.00 0.00 0.00 79 1014.5
20260506145011 66 248 5.0 10.0 0.00 0.00 0.00 78 1014.2
20260506144508 66 237 2.0 7.0 0.00 0.00 0.00 77 1014.1
20260506144005 67 249 0.0 9.0 0.00 0.00 0.00 77 1014.1
20260506143503 67 241 4.0 13.0 0.00 0.00 0.00 75 1014.2
20260506143001 68 266 3.0 12.0 0.00 0.00 0.00 73 1013.9
20260506142458 68 281 3.0 9.0 0.00 0.00 0.00 72 1014.0
20260506141956 68 233 3.0 11.0 0.00 0.00 0.00 73 1014.1
20260506141454 68 294 4.0 8.0 0.00 0.00 0.00 73 1014.0
20260506140952 68 256 4.0 12.0 0.00 0.00 0.00 73 1014.0
20260506140449 68 241 3.0 11.0 0.00 0.00 0.00 72 1014.0
20260506135946 67 273 6.0 10.0 0.00 0.00 0.00 73 1013.8
20260506135443 67 296 4.0 11.0 0.00 0.00 0.00 75 1013.9
20260506134939 67 259 4.0 19.0 0.00 0.00 0.00 74 1013.9
20260506134435 66 316 1.0 16.0 0.00 0.00 0.00 76 1013.9
20260506133932 66 219 3.0 11.0 0.00 0.00 0.00 76 1014.0
20260506133429 66 303 4.0 13.0 0.00 0.00 0.00 75 1014.0
20260506132926 66 265 5.0 16.0 0.00 0.00 0.00 76 1014.3
20260506132423 66 237 6.0 16.0 0.00 0.00 0.00 77 1014.0
20260506131921 65 235 3.0 6.0 0.00 0.00 0.00 78 1014.0
20260506131417 65 282 3.0 8.0 0.00 0.00 0.00 79 1014.3
20260506130914 65 232 3.0 8.0 0.00 0.00 0.00 79 1014.1
20260506130410 65 277 4.0 11.0 0.00 0.00 0.00 79 1014.0
20260506125909 66 255 4.0 19.0 0.00 0.00 0.00 76 1014.0
20260506125407 66 251 4.0 13.0 0.00 0.00 0.00 76 1013.9
20260506124904 65 282 3.0 10.0 0.00 0.00 0.00 76 1013.5
20260506124401 65 233 3.0 7.0 0.00 0.00 0.00 77 1013.9
20260506123859 65 221 3.0 7.0 0.00 0.00 0.00 77 1013.9
20260506123357 65 248 3.0 5.0 0.00 0.00 0.00 77 1013.9
20260506122854 65 261 0.0 9.0 0.00 0.00 0.00 78 1013.7
20260506122351 65 290 3.0 13.0 0.00 0.00 0.00 78 1013.6
20260506121849 65 222 3.0 13.0 0.00 0.00 0.00 78 1013.3
20260506121346 65 231 6.0 10.0 0.00 0.00 0.00 78 1013.5
20260506120843 65 221 2.0 4.0 0.00 0.00 0.00 78 1013.4
20260506120340 65 250 3.0 7.0 0.00 0.00 0.00 77 1013.2
20260506115838 65 262 3.0 6.0 0.00 0.00 0.00 78 1013.2
20260506115336 65 199 7.0 9.0 0.00 0.00 0.00 78 1013.4
20260506114834 64 227 2.0 5.0 0.00 0.00 0.00 78 1013.5
20260506114331 64 240 5.0 12.0 0.00 0.00 0.00 78 1013.5
20260506113830 64 208 3.0 12.0 0.00 0.00 0.00 78 1013.4
20260506113327 64 227 6.0 10.0 0.00 0.00 0.00 78 1013.6
20260506112823 64 269 3.0 6.0 0.00 0.00 0.00 78 1013.4
20260506112320 64 228 3.0 13.0 0.00 0.00 0.00 78 1013.3
20260506111818 64 241 2.0 7.0 0.00 0.00 0.00 78 1013.3
20260506111316 64 261 2.0 7.0 0.00 0.00 0.00 78 1013.5
20260506110813 64 283 2.0 10.0 0.00 0.00 0.00 78 1013.3
20260506110310 64 215 3.0 5.0 0.00 0.00 0.00 78 1013.3
20260506105806 64 271 5.0 6.0 0.00 0.00 0.00 78 1013.2
20260506105305 64 274 3.0 5.0 0.00 0.00 0.00 79 1013.3
20260506104801 64 217 3.0 7.0 0.00 0.00 0.00 79 1013.2
20260506104259 64 247 3.0 8.0 0.00 0.00 0.00 79 1013.3
20260506103756 64 242 3.0 12.0 0.00 0.00 0.00 79 1013.4
20260506103253 64 227 2.0 6.0 0.00 0.00 0.00 79 1013.3
20260506102751 64 235 2.0 12.0 0.00 0.00 0.00 79 1013.3
20260506102248 64 162 4.0 13.0 0.00 0.00 0.00 79 1013.4
20260506101745 64 257 6.0 6.0 0.00 0.00 0.00 79 1013.3
20260506101242 64 231 4.0 10.0 0.00 0.00 0.00 79 1013.2
20260506100740 64 240 4.0 7.0 0.00 0.00 0.00 79 1013.4
20260506100237 64 243 3.0 8.0 0.00 0.00 0.00 79 1013.2
20260506095736 64 201 7.0 13.0 0.00 0.00 0.00 79 1013.1
20260506095232 64 245 2.0 5.0 0.00 0.00 0.00 79 1013.5
20260506094729 64 274 3.0 8.0 0.00 0.00 0.00 79 1013.5
20260506094227 64 287 1.0 5.0 0.00 0.00 0.00 79 1013.2
20260506093726 64 277 4.0 12.0 0.00 0.00 0.00 79 1013.1
20260506093222 64 268 4.0 9.0 0.00 0.00 0.00 79 1013.3
20260506092720 64 212 4.0 13.0 0.00 0.00 0.00 79 1013.2
20260506092218 64 227 6.0 11.0 0.00 0.00 0.00 79 1013.2
20260506091715 64 227 3.0 6.0 0.00 0.00 0.00 79 1013.3
20260506091212 64 245 5.0 9.0 0.00 0.00 0.00 79 1013.3
20260506090710 64 253 5.0 10.0 0.00 0.00 0.00 79 1013.5
20260506090207 64 309 8.0 10.0 0.00 0.00 0.00 79 1013.8
20260506085704 64 217 3.0 12.0 0.00 0.00 0.00 79 1013.5
20260506085200 64 212 4.0 6.0 0.00 0.00 0.00 79 1013.7
20260506084656 64 236 2.0 7.0 0.00 0.00 0.00 79 1013.7
20260506084153 64 244 3.0 8.0 0.00 0.00 0.00 79 1013.5
20260506083650 64 203 2.0 6.0 0.00 0.00 0.00 79 1013.8
20260506083148 64 264 3.0 9.0 0.00 0.00 0.00 79 1013.6
20260506082644 64 250 4.0 17.0 0.00 0.00 0.00 79 1013.5
20260506082139 64 273 3.0 13.0 0.00 0.00 0.00 79 1013.5
20260506081638 64 248 6.0 12.0 0.00 0.00 0.00 79 1013.8
20260506081135 64 214 5.0 6.0 0.00 0.00 0.00 79 1013.5
20260506080633 64 257 3.0 8.0 0.00 0.00 0.00 80 1013.6
20260506080129 64 283 3.0 7.0 0.00 0.00 0.00 80 1013.7
20260506073113 64 236 3.0 12.0 0.00 0.00 0.00 79 1013.7
20260506072610 65 238 3.0 7.0 0.00 0.00 0.00 79 1013.8
20260506072108 64 241 6.0 14.0 0.00 0.00 0.00 79 1013.8
20260506071605 65 200 3.0 7.0 0.00 0.00 0.00 79 1014.0
20260506071102 65 300 3.0 10.0 0.00 0.00 0.00 79 1013.8
20260506070559 65 227 7.0 7.0 0.00 0.00 0.00 79 1014.0
20260506062034 65 232 6.0 19.0 0.00 0.00 0.00 78 1014.3
20260506061529 66 264 4.0 14.0 0.00 0.00 0.00 78 1014.5
20260506061027 66 258 5.0 14.0 0.00 0.00 0.00 78 1014.3
20260506060526 66 228 2.0 11.0 0.00 0.00 0.00 78 1014.6
20260506050954 67 247 3.0 13.0 0.00 0.00 0.00 74 1014.9
20260506050452 67 214 4.0 10.0 0.00 0.00 0.00 73 1014.7
20260506044942 67 295 3.0 7.0 0.00 0.00 0.00 72 1014.8
20260506044441 68 289 4.0 11.0 0.00 0.00 0.00 71 1014.9
20260506043937 68 188 3.0 6.0 0.00 0.00 0.00 71 1014.8
20260506043434 68 235 5.0 13.0 0.00 0.00 0.00 70 1014.5
20260506042932 68 241 6.0 12.0 0.00 0.00 0.00 70 1014.3
20260506042432 68 239 5.0 19.0 0.00 0.00 0.00 69 1014.5
20260506041929 68 228 9.0 15.0 0.00 0.00 0.00 69 1014.5
20260506041427 68 217 3.0 6.0 0.00 0.00 0.00 69 1014.8
20260506040924 69 297 3.0 15.0 0.00 0.00 0.00 68 1014.7
20260506040421 69 238 9.0 12.0 0.00 0.00 0.00 68 1014.9
20260506035917 69 302 2.0 6.0 0.00 0.00 0.00 68 1014.7
20260506035415 69 234 6.0 11.0 0.00 0.00 0.00 67 1014.6
20260506034911 69 278 6.0 12.0 0.00 0.00 0.00 67 1014.8
20260506034409 69 228 4.0 8.0 0.00 0.00 0.00 66 1014.8
20260506033905 70 328 3.0 8.0 0.00 0.00 0.00 66 1014.7
20260506033403 70 240 4.0 10.0 0.00 0.00 0.00 65 1014.8
20260506032859 70 238 5.0 10.0 0.00 0.00 0.00 65 1014.7
20260506032356 70 279 2.0 10.0 0.00 0.00 0.00 64 1014.9
20260506031853 70 235 3.0 7.0 0.00 0.00 0.00 64 1014.7
20260506031350 70 125 2.0 10.0 0.00 0.00 0.00 64 1014.7
20260506030848 71 242 4.0 21.0 0.00 0.00 0.00 63 1014.8
20260506030346 71 220 7.0 15.0 0.00 0.00 0.00 63 1014.6
20260506025843 71 68 4.0 12.0 0.00 0.00 0.00 63 1014.6
20260506025339 71 292 3.0 12.0 0.00 0.00 0.00 62 1014.6
20260506024836 71 306 3.0 6.0 0.00 0.00 0.00 62 1014.8
20260506024333 71 231 2.0 5.0 0.00 0.00 0.00 62 1014.6
20260506023829 71 216 2.0 8.0 0.00 0.00 0.00 61 1014.6
20260506023326 71 223 4.0 12.0 0.00 0.00 0.00 61 1014.7
20260506022823 71 296 2.0 7.0 0.00 0.00 0.00 61 1014.5
20260506022320 71 258 5.0 10.0 0.00 0.00 0.00 61 1014.6
20260506021819 71 264 5.0 12.0 0.00 0.00 0.00 60 1014.6
20260506021315 71 288 4.0 6.0 0.00 0.00 0.00 60 1014.5
20260506020812 72 244 2.0 4.0 0.00 0.00 0.00 60 1014.5
20260506020310 72 235 4.0 5.0 0.00 0.00 0.00 59 1014.5
20260506015807 72 290 2.0 5.0 0.00 0.00 0.00 59 1014.1
20260506015306 72 242 3.0 7.0 0.00 0.00 0.00 59 1014.2
20260506014801 72 240 1.0 9.0 0.00 0.00 0.00 58 1014.0
20260506014258 72 253 4.0 8.0 0.00 0.00 0.00 58 1014.2
20260506013755 72 231 3.0 9.0 0.00 0.00 0.00 57 1013.9
20260506013252 72 299 2.0 9.0 0.00 0.00 0.00 57 1013.9
20260506012748 72 304 2.0 5.0 0.00 0.00 0.00 57 1014.1
20260506012245 72 227 3.0 4.0 0.00 0.00 0.00 57 1014.0
20260506011743 72 240 3.0 5.0 0.00 0.00 0.00 56 1014.0
20260506011239 72 237 3.0 4.0 0.00 0.00 0.00 56 1013.9
20260506010737 72 206 4.0 9.0 0.00 0.00 0.00 56 1013.6
20260506010234 73 226 2.0 4.0 0.00 0.00 0.00 55 1013.8
20260506005731 73 255 2.0 5.0 0.00 0.00 0.00 55 1013.7
20260506005228 73 253 0.0 6.0 0.00 0.00 0.00 54 1013.4
20260506004724 73 277 4.0 5.0 0.00 0.00 0.00 54 1013.4
20260506004222 73 218 0.0 5.0 0.00 0.00 0.00 53 1013.7
20260506003717 74 212 4.0 6.0 0.00 0.00 0.00 53 1013.6
20260506003214 74 248 3.0 8.0 0.00 0.00 0.00 52 1013.5
20260506002710 74 280 2.0 5.0 0.00 0.00 0.00 52 1013.7
20260506002206 74 258 0.0 3.0 0.00 0.00 0.00 52 1013.3
20260506001702 74 237 2.0 3.0 0.00 0.00 0.00 52 1013.3
20260506001200 74 239 3.0 5.0 0.00 0.00 0.00 52 1013.3
20260506000657 74 211 2.0 4.0 0.00 0.00 0.00 51 1013.3
20260506000154 75 216 0.0 8.0 0.00 0.00 0.00 51 1013.2
20260505235652 75 241 1.0 5.0 0.00 0.00 0.00 50 1013.2
20260505235149 75 265 2.0 6.0 0.00 0.00 0.00 50 1013.2
20260505234646 76 180 0.0 3.0 0.00 0.00 0.00 49 1013.3
20260505234143 76 175 2.0 8.0 0.00 0.00 0.00 49 1013.1
20260505233640 76 264 2.0 6.0 0.00 0.00 0.00 48 1013.1
20260505233137 77 220 3.0 10.0 0.00 0.00 0.00 48 1013.3
20260505232635 77 268 3.0 6.0 0.00 0.00 0.00 47 1013.4
20260505232132 77 224 7.0 12.0 0.00 0.00 0.00 47 1013.2
20260505231629 77 244 4.0 9.0 0.00 0.00 0.00 47 1013.1
20260505231128 77 265 4.0 4.0 0.00 0.00 0.00 47 1013.2
20260505230626 78 267 2.0 6.0 0.00 0.00 0.00 46 1013.1
20260505230121 78 194 1.0 12.0 0.00 0.00 0.00 45 1013.0
20260505225618 78 199 6.0 10.0 0.00 0.00 0.00 45 1013.1
20260505225114 78 264 5.0 7.0 0.00 0.00 0.00 44 1013.2
20260505224611 78 273 3.0 7.0 0.00 0.00 0.00 44 1013.4
20260505224108 78 292 3.0 17.0 0.00 0.00 0.00 43 1013.3
20260505223605 79 270 5.0 11.0 0.00 0.00 0.00 44 1013.2
20260505223101 79 229 2.0 9.0 0.00 0.00 0.00 44 1013.4
20260505222558 79 15 2.0 16.0 0.00 0.00 0.00 44 1013.2
20260505222054 79 265 3.0 5.0 0.00 0.00 0.00 45 1013.2
20260505221551 78 231 3.0 6.0 0.00 0.00 0.00 44 1013.3
20260505221048 79 330 3.0 7.0 0.00 0.00 0.00 44 1013.5
20260505220545 79 246 3.0 11.0 0.00 0.00 0.00 44 1013.3
20260505220043 79 254 4.0 12.0 0.00 0.00 0.00 44 1013.4
20260505215541 79 283 5.0 16.0 0.00 0.00 0.00 44 1013.2
20260505215038 79 272 5.0 10.0 0.00 0.00 0.00 44 1013.1
20260505214536 78 261 5.0 11.0 0.00 0.00 0.00 44 1013.4
20260505214033 79 259 4.0 20.0 0.00 0.00 0.00 43 1013.2
20260505213531 79 224 7.0 17.0 0.00 0.00 0.00 43 1013.2
20260505213027 79 270 4.0 13.0 0.00 0.00 0.00 43 1013.4
20260505212523 80 245 5.0 13.0 0.00 0.00 0.00 42 1013.0
20260505212020 80 252 5.0 9.0 0.00 0.00 0.00 42 1013.3
20260505211518 81 244 0.0 17.0 0.00 0.00 0.00 41 1013.4